Location: Tamazert
(32.6352°N, 5.2072°W)
Time: 05:06:51
(UTC+00:00)

Cosmos 1408 - Pass Details

Date: 22 May 2022
Orbit: 447 x 485 km, 82.6° (Epoch: 24 June)

Event Time Altitude Azimuth Distance (km) Brightness Sun altitude
Exits shadow 04:13:57 - 182° (S) 1,878 5.2 -12.6°
Reaches altitude 10° 04:14:28 10° 182° (S) 1,663 4.9 -12.5°
Maximum altitude 04:18:06 81° 96° (E) 496 2.6 -11.8°
Drops below altitude 10° 04:21:45 10° 8° (N) 1,670 5.9 -11.2°
Sets 04:23:51 0° 8° (N) 2,551 6.9 -10.8°
